Location: Bussy-Saint-Georges
(48.8410°N, 2.7017°E)
Time: 21:44:58
(UTC+00:00)

Cosmos 2298 Rocket - Pass Details

Date: 18 October 2021
Orbit: 776 x 783 km, 74.0° (Epoch: 07 December)

Event Time Altitude Azimuth Distance (km) Brightness Sun altitude
Rises 17:49:35 0° 202° (SSW) 3,248 7.6 -9.9°
Reaches altitude 10° 17:51:58 10° 202° (SSW) 2,324 6.8 -10.3°
Maximum altitude 17:57:15 88° 288° (WNW) 785 4.1 -11.2°
Drops below altitude 10° 18:02:35 10° 23° (NNE) 2,337 6.3 -12.1°
Sets 18:04:58 0° 24° (NNE) 3,268 7.0 -12.5°
